Find Geo-IK-2 No. 12L

NORAD ID: 41579 Int'l Des: 2016-034 Owner: TSVS Country: RU operational
LEOCIRCULARRETROGRADESSO

現在のビュー

3D地球を読み込み中...

About Geo-IK-2 No. 12L

Geo-IK-2 No. 12L (NORAD 41579) is a satellite launched Jun 4, 2016 by TSVS of RU. It operates in LEO, CIRCULAR, RETROGRADE, SSO orbit with a mass of 900.00 kg.

Geo-IK-2 No. 12Lについて

説明を読み込み中...

次回通過

Passes for default location (London). Set your location on the main map for personalized predictions.

高度履歴

Loading altitude history...

軌道要素

1 41579U 16034A 26159.84096638 .00000017 00000-0 52553-4 0 9999
2 41579 99.1879 168.7847 0001062 87.5673 272.5604 13.85909711506479
Epoch: Jun 8, 2026 • Age: 9 hours

現在のステータス

高度 945.3 km
速度 7.38 km/s
衛星直下点 21.20°N, 11.01°E
打ち上げ日 Jun 4, 2016
運用期間 10 years
タイプ other

技術仕様

分類 Payload
質量 900.00 kg
乾燥質量 900.00 kg
総質量 900.00 kg
長さ 3.00 m
直径 1.30 m
スパン 3.00 m
形状 Cyl + 2 Pan
製造者 RESH
バスタイプ Geo-IK-2 14F31
フェーズステータス In Orbit
所有者/国 TSVS/RU

Most Searched